DL3MEB-6 Weather Reports


Display with metric or nautical units.
time (UTC)temp
F
wind
direction
speed
MPH
gust
MPH
rain 1hr
in
rain 24hr
in
rain mn
in
humidity
%
barometer
mb
20260903014045 62 274 0.0 0.0 0.00 0.00 0.00 76 1020.3
20260903012537 63 274 0.0 1.0 0.00 0.00 0.00 74 1020.3
20260903011030 63 274 1.0 1.0 0.00 0.00 0.00 73 1020.2
20260903005529 64 274 0.0 0.0 0.00 0.00 0.00 71 1020.0
20260903004022 64 275 0.0 0.0 0.00 0.00 0.00 69 1020.0
20260903002516 65 274 0.0 0.0 0.00 0.00 0.00 68 1020.0
20260903001013 65 274 1.0 2.0 0.00 0.00 0.00 67 1020.0
20260902235508 65 275 0.0 1.0 0.00 0.00 0.00 66 1020.1
20260902234002 65 274 2.0 2.0 0.00 0.00 0.00 66 1020.2
20260902232455 65 274 0.0 2.0 0.00 0.00 0.00 67 1020.1
20260902230946 65 274 0.0 0.0 0.00 0.00 0.00 68 1020.1
20260902225435 65 275 0.0 0.0 0.00 0.00 0.00 66 1020.1
20260902223925 66 275 0.0 0.0 0.00 0.00 0.00 65 1020.1
20260902222421 66 274 0.0 0.0 0.00 0.00 0.00 64 1020.1
20260902220917 66 275 1.0 1.0 0.00 0.00 0.00 64 1020.1
20260902215409 66 275 0.0 2.0 0.00 0.00 0.00 65 1020.1
20260902213906 66 274 0.0 1.0 0.00 0.00 0.00 66 1020.1
20260902212358 66 275 0.0 0.0 0.00 0.00 0.00 67 1020.0
20260902205344 67 309 0.0 0.0 0.00 0.00 0.00 68 1019.9
20260902202336 67 309 0.0 0.0 0.00 0.00 0.00 65 1019.7
20260902200823 68 309 0.0 0.0 0.00 0.00 0.00 65 1019.9
20260902195315 68 309 0.0 0.0 0.00 0.00 0.00 64 1019.9
20260902193902 68 309 0.0 0.0 0.00 0.00 0.00 65 1019.9
20260902193816 68 309 0.0 0.0 0.00 0.00 0.00 65 1019.9
20260902192307 69 309 0.0 0.0 0.00 0.00 0.00 63 1019.7
20260902190803 69 309 0.0 0.0 0.00 0.00 0.00 62 1019.8
20260902185253 70 309 0.0 0.0 0.00 0.00 0.00 60 1019.6
20260902183742 71 309 0.0 0.0 0.00 0.00 0.00 58 1019.5
20260902182227 73 309 0.0 0.0 0.00 0.00 0.00 56 1019.1
20260902180721 74 309 0.0 0.0 0.00 0.00 0.00 54 1019.0
20260902175220 75 309 0.0 0.0 0.00 0.00 0.00 52 1018.8
20260902173709 76 309 0.0 1.0 0.00 0.00 0.00 50 1018.7
20260902172204 76 309 0.0 2.0 0.00 0.00 0.00 47 1018.6
20260902170651 76 308 1.0 4.0 0.00 0.00 0.00 45 1018.7
20260902165141 76 298 1.0 3.0 0.00 0.00 0.00 45 1018.9
20260902162136 77 278 1.0 4.0 0.00 0.00 0.00 42 1018.6
20260902160630 78 329 0.0 4.0 0.00 0.00 0.00 41 1018.4
20260902155117 78 302 1.0 5.0 0.00 0.00 0.00 41 1018.5
20260902152102 80 230 9.0 10.0 0.00 0.00 0.00 38 1018.8
20260902150604 81 241 5.0 5.0 0.00 0.00 0.00 36 1018.6
20260902145053 82 275 6.0 10.0 0.00 0.00 0.00 35 1018.6
20260902142044 81 222 6.0 6.0 0.00 0.00 0.00 36 1018.8
20260902140533 81 271 10.0 10.0 0.00 0.00 0.00 38 1018.7
20260902135023 82 232 3.0 9.0 0.00 0.00 0.00 34 1018.6
20260902133515 82 239 11.0 11.0 0.00 0.00 0.00 35 1018.8
20260902132017 81 237 4.0 9.0 0.00 0.00 0.00 38 1019.0
20260902130506 79 148 2.0 6.0 0.00 0.00 0.00 40 1019.1
20260902124953 79 248 1.0 8.0 0.00 0.00 0.00 41 1019.4
20260902121940 78 284 4.0 5.0 0.00 0.00 0.00 41 1019.6
20260902120436 77 250 4.0 5.0 0.00 0.00 0.00 41 1019.6
20260902114927 76 267 6.0 6.0 0.00 0.00 0.00 44 1019.7
20260902113418 75 223 0.0 1.0 0.00 0.00 0.00 46 1020.1
20260902110409 75 93 0.0 1.0 0.00 0.00 0.00 52 1020.1
20260902104906 74 110 0.0 2.0 0.00 0.00 0.00 50 1020.4
20260902103402 73 85 2.0 2.0 0.00 0.00 0.00 53 1020.5
20260902101847 73 82 0.0 2.0 0.00 0.00 0.00 51 1020.5
20260902094833 72 68 1.0 2.0 0.00 0.00 0.00 57 1021.0
20260902093332 71 86 2.0 3.0 0.00 0.00 0.00 58 1020.9
20260902091826 70 80 1.0 1.0 0.00 0.00 0.00 58 1020.8
20260902090316 70 82 0.0 1.0 0.00 0.00 0.00 59 1020.8
20260902084807 68 82 3.0 3.0 0.00 0.00 0.00 59 1020.9
20260902083306 66 75 0.0 1.0 0.00 0.00 0.00 67 1020.9
20260902081759 65 75 1.0 1.0 0.00 0.00 0.00 71 1020.9
20260902080252 63 79 0.0 1.0 0.00 0.00 0.00 80 1021.1
20260902074745 62 311 0.0 0.0 0.00 0.00 0.00 85 1021.0
20260902073242 60 311 0.0 0.0 0.00 0.00 0.00 91 1021.2
20260902071736 59 311 0.0 0.0 0.00 0.00 0.00 95 1021.0
20260902070233 58 311 1.0 1.0 0.00 0.00 0.00 96 1021.0
20260902064727 57 311 0.0 0.0 0.00 0.00 0.00 96 1021.2
20260902063213 56 311 0.0 0.0 0.00 0.00 0.00 96 1021.1
20260902061709 56 309 0.0 0.0 0.00 0.00 0.00 96 1020.9
20260902054657 55 311 0.0 0.0 0.00 0.00 0.00 95 1020.6
20260902053144 54 309 0.0 0.0 0.00 0.00 0.00 95 1020.7
20260902051636 54 311 0.0 0.0 0.00 0.00 0.00 94 1020.5
20260902050136 53 311 0.0 0.0 0.00 0.00 0.00 93 1020.4
20260902044633 53 311 0.0 0.0 0.00 0.00 0.00 93 1020.3
20260902043119 54 309 0.0 0.0 0.00 0.00 0.00 92 1020.3
20260902041619 54 311 0.0 0.0 0.00 0.00 0.00 92 1020.1
20260902040109 54 311 0.0 0.0 0.00 0.00 0.00 92 1020.2
20260902034600 54 311 0.0 0.0 0.00 0.00 0.00 92 1020.1
20260902031549 55 311 0.0 0.0 0.00 0.00 0.00 91 1020.2
20260902030043 55 309 0.0 0.0 0.00 0.00 0.00 91 1020.2
20260902024536 56 311 0.0 0.0 0.00 0.00 0.00 91 1020.4
20260902023030 56 311 0.0 0.0 0.00 0.00 0.00 91 1020.4
20260902021520 56 311 0.0 0.0 0.00 0.00 0.00 91 1020.5
20260902020010 57 311 0.0 0.0 0.00 0.00 0.00 90 1020.5